Regional Weather Roundup
Issued by NWS Portland, ME

Home | Current Version | Previous Version | Text Only | Print | Product List | Glossary On
Versions: 1 2 3 4 5 6 7 8 9 10 11 12 13 14 15 16 17 18 19 20 21 22 23 24 25 26 27 28 29 30 31 32 33 34 35 36 37 38 39 40 41 42 43 44 45 46 47 48 49 50
429
ASUS41 KGYX 162010
RWRGYX
WEATHER ROUNDUP FOR MAINE AND NEW HAMPSHIRE
NATIONAL WEATHER SERVICE GRAY ME
300 PM EST MON JAN 16 2017

MEZ002-005-006-010-012-015-018-020-021-024-026-027-029-162100-
MAINE

CITY           SKY/WX    TMP DP  RH WIND       PRES   REMARKS
PORTLAND       MOSUNNY   39  10  30 SW7       30.21F
SANFORD        SUNNY     38  15  39 SW14      30.22F
BAR HARBOR     CLOUDY    35  21  56 SW20G26   30.18S
WISCASSET      SUNNY     36  15  42 SW9       30.20F
ROCKLAND       SUNNY     37  24  59 SW13      30.19F
FRYEBURG       SUNNY     36  12  37 SW12G17   30.16F
LEWISTONAUBURN SUNNY     35  12  38 SW13      30.17F
AUGUSTA        SUNNY     34  10  37 SW8       30.16F
WATERVILLE     SUNNY     33  12  41 SW8       30.13F
BANGOR         CLOUDY    33  10  38 SW12      30.14F
GREENVILLE       N/A     25   8  48 S8        30.01F
MILLINOCKET    SUNNY     27   9  46 SW9       30.10S
HOULTON        CLOUDY    24  12  60 SW12G20   30.05F WCI  13
PRESQUE ISLE   CLOUDY    21   9  59 S12       30.01S WCI   9
FRENCHVILLE    CLOUDY    17   8  67 S6        29.92F
CARIBOU        CLOUDY    20   7  57 S10       29.98F WCI   9
$$

NHZ002-005-008-009-011-012-014-162100-
NEW HAMPSHIRE

CITY           SKY/WX    TMP DP  RH WIND       PRES   REMARKS
PORTSMOUTH     MOSUNNY   40  14  35 W10       30.23F
ROCHESTER      SUNNY     38  13  35 VRB6      30.21F
NASHUA         SUNNY     39  17  41 VRB6      30.26F
MANCHESTER     MOSUNNY   39  14  36 SW7       30.24F
CONCORD        SUNNY     38  14  37 SW8       30.23F
LACONIA        SUNNY     36  16  44 SW13      30.20F
PLYMOUTH       FAIR      37  16  42 CALM      30.20F
BERLIN         SUNNY     36   9  32 CALM      30.12F
WHITEFIELD     SUNNY     35  13  40 NW6       30.16S
JAFFREY        CLOUDY    36  15  42 VRB6      30.23F
KEENE          CLOUDY    37  18  46 S8        30.26F
LEBANON        SUNNY     38  18  44 S9        30.21S
MT WASHINGTON  MOSUNNY   14   1  57 W58G63      N/A  WCI -12
$$

VTZ005-007-008-162100-
VERMONT

CITY           SKY/WX    TMP DP  RH WIND       PRES   REMARKS
ST JOHNSBURY     N/A     34  15  46 MISG      30.17S
MONTPELIER     SUNNY     38  16  40 S8        30.19F
BURLINGTON     MOSUNNY   38  18  44 S14G22    30.19F
$$

MAZ007-012-024-CTZ003-RIZ002-NYZ038-NYZ072-162100-
SOUTHERN NEW ENGLAND AND NY

CITY           SKY/WX    TMP DP  RH WIND       PRES   REMARKS
BOSTON         MOSUNNY   40  16  37 SW14G22   30.28F
WORCESTER      SUNNY     36  14  40 W12       30.25F
NANTUCKET      SUNNY     41  26  55 W16       30.34S
PROVIDENCE     PTSUNNY   42  13  30 SW12      30.32F
HARTFORD       PTSUNNY   42  18  37 S7        30.30F
ALBANY         MOSUNNY   38  18  44 S9        30.29F
NEW YORK CITY  PTSUNNY   44  21  40 SW6       30.35F
$$

ANZ081-ANZ082-ANZ150-NHZ014-MEZ023>029-162100-
COASTAL MARINE OBSERVATIONS

STATION/POSITION TIME  TEMP    WIND        PRES    WAVE
                       AIR SEA DIR/SP/G            HT/PER
                 (UTC) (F)     (DEG/KT/KT) (MB)    (FT/S)
MOUNT DESERT ROC 2000   38                 1022.2F
MATINICUS ROCK   1900   36     230/ 26/ 28 1023.1F
ISLE OF SHOALS   1900   37     240/ 21/ 23 1024.0F
CASHES LEDGE BUO 1850   40 46  220/ 21/ 25 1023.8    4/ 5
GEORGES BANK BUO 1850   39 43              1027.8    3/ 7
$$

.............KEY..............
   WCI - WIND CHILL
   TC  - TEMPERATURE IN CELSIUS
   VSB - VISIBILITY IN MILES
   HX  - HEAT INDEX
   FAIR- INDICATES FEW OR NO CLOUDS BELOW 12,000 FT, WITH NO
         SIGNIFICANT WEATHER AND/OR OBSTRUCTIONS TO VISIBILITY.






USA.gov is the U.S. government's official web portal to all federal, state and local government web resources and services.